RH
8 6 5 6 6 6 6 6 6 6 8 8 7 6 6 6 6 6 14 66 100 100 100 100 98 98 95 79 75 78 91 100 100 100 100 98 76 64 90 90 78 74 75 61 51
8 6 5 5 6 6 6 6 6 5 5 7 7 6 6 6 6 6 10 25 72 100 100 100 100 100 97 98 81 75 81 100 100 100 100 98 83 70 85 99 96 80 84 74 76
7 6 5 5 6 6 6 6 5 4 4 4 6 6 6 6 7 7 6 10 29 93 100 100 100 100 96 95 100 91 99 100 100 100 100 99 86 84 87 95 99 81 76 80 70
6 5 4 5 5 4 4 4 4 3 3 3 4 5 6 5 6 7 6 6 11 54 100 100 100 100 100 99 100 100 100 100 100 100 100 100 93 82 86 91 95 99 98 90 88
5 4 4 4 4 3 3 3 2 2 2 2 3 5 5 5 6 7 7 7 7 24 75 100 100 100 100 100 100 100 100 100 100 100 100 100 95 88 95 86 89 95 100 96 85
5 4 3 3 3 2 2 2 2 2 2 2 2 4 4 5 7 7 6 6 7 15 50 99 100 100 100 100 100 100 100 100 100 100 100 100 100 94 100 93 100 98 100 100 93
4 3 3 2 2 2 2 2 2 2 2 2 2 3 4 6 6 7 6 7 7 9 28 86 100 100 100 100 100 100 100 100 100 100 100 100 100 100 100 100 100 100 100 100 100
4 3 3 3 2 2 2 2 2 2 2 2 2 3 4 6 6 7 6 7 8 9 14 57 96 100 100 100 100 100 100 100 100 100 100 100 100 100 100 100 100 100 100 100 100
4 4 3 2 2 2 2 2 2 1 1 2 2 3 4 6 8 7 7 8 9 10 12 32 98 100 100 100 100 100 100 100 100 100 100 100 100 100 93 100 100 100 100 100 100
4 4 3 2 2 2 2 2 1 1 1 2 2 3 4 5 8 8 7 10 11 11 12 14 54 100 100 100 100 100 100 100 100 100 100 100 100 100 100 100 100 100 100 100 100
3 3 3 2 2 2 1 1 1 1 1 2 3 4 4 5 8 9 10 13 12 13 13 17 16 95 100 100 100 100 100 100 100 100 100 100 100 100 100 100 100 100 100 100 100
4 3 3 2 2 2 1 1 1 1 1 2 3 4 4 5 8 10 12 14 15 14 14 15 16 50 100 100 100 100 100 100 100 100 100 100 100 100 100 100 100 100 100 100 99
4 3 3 2 2 2 1 2 2 2 2 2 3 3 5 7 11 12 16 17 16 16 20 18 21 26 98 100 100 100 100 100 100 100 99 100 100 100 100 98 100 100 97 93 94
4 3 3 3 2 2 1 2 2 2 2 2 3 5 7 8 10 11 16 19 17 19 26 21 20 24 27 100 100 100 100 100 100 100 100 99 100 100 91 80 86 83 78 74 79
3 3 3 3 2 2 2 2 2 2 3 3 4 6 8 9 14 18 22 20 17 18 26 22 17 18 23 36 100 100 100 100 100 100 100 100 100 100 94 92 95 97 92 91 100
4 3 3 4 3 2 2 2 3 3 4 4 5 7 8 14 18 19 22 22 20 20 26 30 21 18 20 22 78 100 100 100 100 100 100 100 100 100 100 100 100 100 100 100 100
5 4 3 4 3 3 3 2 4 5 5 6 7 9 16 22 21 24 22 24 26 23 24 35 29 18 18 25 32 95 100 100 100 100 100 100 100 100 100 100 100 100 100 100 99
5 5 4 4 4 4 5 4 3 5 8 8 8 11 17 22 24 25 21 24 26 27 29 32 25 20 18 19 35 47 100 100 100 100 100 100 100 100 100 100 100 100 100 100 100
6 6 6 5 5 4 6 8 6 4 8 12 15 20 30 31 30 24 22 26 26 28 32 34 35 32 25 24 30 36 68 99 100 100 100 100 100 100 100 100 97 100 100 90 94
5 6 6 7 7 6 8 12 12 9 9 15 21 26 25 27 27 23 30 29 31 29 31 31 36 37 37 34 44 47 65 77 78 97 100 100 100 100 100 100 97 94 81 81 82
6 7 8 8 7 8 12 15 18 20 15 16 16 16 22 22 25 26 26 31 34 39 34 42 43 54 57 60 62 78 68 97 98 94 92 90 96 100 100 100 100 92 82 78 76
7 7 8 10 9 10 12 19 20 23 29 27 29 32 28 28 28 27 30 32 39 36 36 44 53 61 69 77 81 87 89 96 99 100 92 76 70 74 78 92 87 86 80 77 76
7 7 8 10 10 10 13 20 24 22 24 26 28 32 32 36 40 42 37 38 36 40 48 51 57 67 71 81 82 79 89 98 100 97 78 83 89 89 90 86 80 79 76 74 80
8 7 9 10 12 12 13 20 32 31 27 31 35 38 48 47 54 50 45 45 49 54 57 65 63 59 66 75 84 83 84 95 100 96 97 91 93 86 81 79 81 89 89 91 81
8 8 8 9 12 13 14 21 37 46 44 40 48 52 54 50 56 60 54 52 59 63 73 71 66 58 63 72 78 94 98 96 87 89 84 90 87 91 90 92 92 93 94 92 93
8 8 9 9 10 13 15 17 36 61 56 52 55 61 64 70 67 66 64 67 72 75 70 79 84 82 78 83 83 87 97 98 98 94 95 96 98 95 99 97 97 93 88 84 72
8 7 8 10 11 12 14 16 22 51 76 72 64 57 62 65 68 68 65 68 66 61 66 75 77 81 79 85 82 83 87 84 84 84 85 82 91 87 90 94 97 97 79 68 80
Wind_Speed
88 84 74 65 58 50 46 46 47 49 55 63 65 68 74 82 90 99 107 117 120 119 120 117 111 107 103 98 94 90 84 76 77 78 80 83 82 79 72 73 74 73 71 71 70
91 86 78 69 64 57 53 55 54 54 55 63 67 71 74 80 86 96 111 119 124 121 120 118 115 112 108 102 98 94 84 80 81 79 84 83 82 81 75 72 72 73 72 73 70
93 88 81 73 67 61 58 59 60 60 59 62 65 72 74 79 84 95 108 115 122 125 122 121 120 117 112 108 101 95 87 86 85 86 84 79 76 74 72 72 70 70 70 70 70
95 89 82 76 69 63 60 60 61 60 59 59 61 71 74 79 83 95 99 111 118 125 126 123 122 118 114 110 104 98 92 90 92 90 86 82 76 71 69 71 70 67 68 70 70
96 91 83 77 71 66 58 57 57 54 52 54 55 66 74 79 82 90 95 107 113 121 127 123 123 120 117 113 109 104 99 96 96 93 89 85 79 74 70 71 69 67 67 70 70
96 92 85 79 72 65 53 49 50 49 46 46 48 58 71 74 81 88 91 99 111 118 125 127 123 121 119 118 114 110 106 103 100 96 92 87 83 74 72 74 72 70 69 68 69
97 93 86 80 75 65 52 44 42 42 40 38 40 51 62 69 79 85 87 94 104 115 122 127 126 123 122 120 118 113 108 105 103 98 94 89 85 75 80 76 74 74 72 70 70
98 95 89 83 75 61 51 40 35 35 34 31 35 43 56 68 76 85 85 88 99 110 117 123 128 127 122 120 117 114 109 105 103 99 94 94 87 82 83 80 80 77 75 74 74
98 95 89 83 72 59 50 41 33 30 29 27 31 38 55 65 74 80 82 86 96 105 115 120 127 127 124 120 115 113 109 106 104 100 98 94 89 88 87 85 85 83 80 78 79
98 92 87 82 71 59 48 40 32 27 24 25 29 36 48 61 69 77 80 82 92 102 110 116 123 125 123 119 111 106 105 105 106 105 102 97 90 90 86 86 85 83 83 80 78
99 93 88 81 71 60 51 35 28 21 19 25 33 44 52 60 68 71 73 81 89 97 102 111 112 115 117 114 112 111 108 107 107 104 99 94 92 92 91 90 87 86 85 83 83
99 92 87 80 70 59 46 31 24 15 15 25 33 42 45 54 64 66 68 78 86 90 95 102 104 109 118 123 111 111 109 108 106 103 101 98 91 93 95 93 90 88 88 87 85
97 91 87 80 67 53 42 30 21 8 9 20 31 35 41 51 60 63 69 76 82 82 89 96 101 103 111 116 117 100 101 106 106 104 102 96 91 92 96 94 90 87 87 85 87
97 91 86 82 65 52 42 32 22 9 3 14 26 37 44 54 60 59 67 74 76 79 85 92 95 102 104 113 116 108 102 98 101 101 97 95 92 98 96 91 89 87 86 84 81
97 90 84 79 63 50 44 34 25 14 7 8 25 36 45 48 50 53 61 69 73 76 83 87 93 98 101 104 108 111 104 98 91 89 89 89 88 94 91 89 88 88 85 82 81
95 91 84 79 63 50 45 36 30 19 14 11 21 30 38 45 49 52 59 64 68 70 76 80 84 89 91 98 104 109 104 95 93 91 88 86 82 86 88 82 83 83 82 80 78
92 90 83 78 65 52 49 37 29 22 16 12 20 29 37 44 43 48 55 59 61 63 70 75 79 78 81 84 90 98 105 100 83 81 83 87 88 87 86 84 79 79 77 78 80
87 86 83 77 70 56 51 41 29 23 20 14 14 26 37 38 42 47 49 54 57 59 63 67 69 71 72 76 80 86 97 102 100 80 79 83 83 83 85 83 82 81 82 82 79
83 81 78 77 73 60 52 47 38 21 18 14 18 26 31 35 37 37 40 45 51 54 56 60 63 65 66 68 69 73 80 93 101 103 90 81 81 82 85 86 86 84 85 86 87
79 77 74 72 68 60 53 49 41 29 13 17 23 21 26 29 29 31 33 38 43 46 50 54 56 60 61 62 63 68 76 79 86 94 100 100 93 86 83 87 86 88 88 86 87
77 72 70 68 63 57 48 43 36 28 17 9 6 15 18 23 25 27 32 36 39 42 44 48 51 56 58 61 63 63 68 69 73 77 81 90 94 98 94 92 91 92 90 90 90
72 69 65 63 60 53 43 36 28 23 15 9 5 6 8 12 15 20 27 31 34 37 38 42 44 50 52 55 57 58 58 62 63 68 78 83 85 86 87 88 92 93 92 93 94
65 66 60 57 55 51 42 34 28 23 13 7 5 5 10 12 15 18 21 25 28 31 33 36 40 44 49 52 53 55 55 57 62 68 70 69 71 74 75 78 78 78 78 77 76
62 62 58 53 50 46 39 33 30 26 19 10 4 6 9 10 10 12 14 18 23 27 30 32 33 38 45 49 51 52 54 59 62 61 60 60 63 64 65 65 64 65 66 68 69
59 57 55 51 47 42 36 29 25 25 19 15 5 2 4 7 9 9 10 13 19 25 28 29 29 29 34 42 45 52 52 54 57 58 59 56 57 56 53 51 53 56 56 56 59
57 55 50 49 44 40 34 25 19 18 19 12 6 3 5 7 6 8 10 11 13 22 27 27 28 27 28 31 36 43 47 48 49 53 53 56 54 52 48 48 47 48 52 49 48
54 52 48 44 45 40 33 27 18 13 13 14 14 9 8 8 8 7 8 10 11 14 22 27 29 29 28 29 32 35 38 40 42 45 48 47 41 43 44 45 45 45 43 36 32
Wind_Direction
342 340 337 332 325 317 303 291 276 261 252 248 243 235 227 223 222 217 212 212 212 215 219 219 219 219 220 219 221 222 221 221 226 230 233 232 231 233 236 240 241 242 245 249 250
342 339 337 332 326 318 307 296 283 271 254 246 241 237 230 223 220 219 214 213 212 213 217 219 219 219 219 220 220 222 220 222 226 228 232 232 232 232 235 239 242 243 245 248 250
342 339 336 332 326 317 307 294 284 274 264 251 239 237 231 225 219 219 217 213 213 212 215 217 219 218 219 219 220 220 221 222 225 228 231 233 232 231 233 238 241 244 245 248 251
341 339 336 331 325 317 307 294 283 276 269 256 241 234 230 225 220 221 219 216 213 213 213 217 218 220 221 220 221 222 221 223 226 228 231 234 234 233 235 238 241 243 246 248 249
342 339 336 332 328 320 310 296 286 278 268 257 244 231 229 225 219 220 218 219 214 212 213 214 218 218 220 221 221 221 221 223 226 227 230 233 234 234 236 240 242 244 247 251 253
342 340 338 334 330 324 316 302 289 280 269 256 243 228 227 222 219 220 218 218 215 213 212 214 218 219 219 221 222 221 222 223 226 227 229 232 234 235 239 241 244 247 248 251 255
342 342 340 337 334 330 322 307 294 281 270 255 240 226 223 218 219 218 218 217 217 213 212 213 214 220 220 220 223 222 222 224 227 229 229 231 234 234 239 241 244 247 251 253 255
343 343 342 340 336 333 327 318 297 283 272 253 232 221 214 214 215 216 216 216 216 215 214 213 216 216 220 221 222 223 223 225 228 230 231 234 234 234 237 240 242 246 249 252 255
345 345 342 341 339 335 332 322 309 288 270 248 225 213 210 210 211 214 214 213 214 214 215 214 214 215 220 222 222 222 224 226 229 230 232 233 237 239 240 240 242 244 248 251 254
348 346 345 344 342 339 334 323 315 290 262 236 217 207 207 208 208 211 211 210 213 214 214 215 215 216 216 224 225 225 226 228 229 231 233 234 236 240 242 245 247 247 249 252 255
349 349 348 348 345 344 338 330 318 289 244 215 206 203 202 203 205 209 207 209 213 213 214 216 216 216 217 222 225 227 227 228 229 231 233 236 236 240 242 242 245 248 249 251 254
351 352 351 351 349 347 343 341 331 299 227 206 201 201 203 202 202 204 205 208 213 212 214 216 216 215 217 218 223 227 229 231 232 234 234 235 234 240 241 243 245 249 250 251 253
352 354 354 356 354 351 351 354 350 319 220 196 196 198 197 197 200 201 203 207 212 210 212 214 215 215 217 219 221 224 228 232 235 236 236 236 237 240 243 243 246 250 252 255 255
353 357 358 359 357 359 3 8 5 13 175 187 185 186 190 196 199 198 200 206 208 208 210 215 213 215 216 217 221 223 225 229 233 237 239 241 243 245 245 248 250 252 254 257 260
353 358 2 2 1 4 9 15 18 34 82 156 184 183 189 197 196 193 199 206 209 207 212 216 215 215 215 216 218 221 224 225 228 233 237 240 241 245 248 250 252 255 257 258 258
353 357 4 5 6 11 16 24 27 55 86 147 176 181 188 190 190 193 199 203 209 209 211 217 218 218 217 219 218 221 223 227 229 230 231 232 235 241 246 246 248 252 253 255 257
353 356 2 7 9 15 22 27 44 57 72 131 165 174 180 185 190 192 199 202 208 210 213 215 221 219 219 220 221 221 226 224 226 229 232 235 237 239 242 244 247 251 253 256 258
353 356 0 5 11 19 24 23 37 58 74 84 155 172 179 186 186 194 199 201 205 211 214 218 223 223 222 220 219 221 224 227 225 228 230 233 235 236 241 243 245 249 251 254 254
353 355 0 3 9 17 24 24 27 57 78 108 142 163 169 177 185 197 197 202 206 208 212 217 220 224 224 223 223 223 224 227 229 229 229 232 233 236 240 243 248 250 252 253 253
352 355 359 3 8 12 22 23 22 29 68 129 149 166 172 177 186 189 189 199 207 211 214 217 220 223 223 222 223 223 224 226 229 232 235 236 237 237 239 245 248 250 255 257 258
349 356 357 1 6 12 19 21 23 24 27 59 154 161 179 180 182 186 189 194 200 208 212 215 217 219 222 223 223 222 224 227 234 236 238 239 239 240 244 248 249 252 255 257 261
348 352 356 358 1 8 17 21 19 24 21 36 84 135 164 175 173 184 191 200 200 205 208 212 217 219 220 222 224 225 226 225 225 230 236 239 242 244 246 248 251 254 257 261 265
348 348 353 355 358 2 10 14 13 12 19 36 78 130 155 167 173 180 193 198 204 205 208 211 213 216 218 219 220 223 225 228 229 232 238 241 243 244 247 252 254 257 259 262 265
346 345 348 352 354 358 3 8 6 7 12 1 68 138 149 148 151 164 177 187 192 200 204 207 210 213 217 218 220 223 227 227 230 232 236 238 241 244 248 252 255 257 261 262 264
343 342 343 346 350 354 357 1 360 353 356 360 13 80 161 166 163 168 172 181 193 199 202 206 211 213 214 217 219 223 228 230 231 235 237 238 241 246 249 250 252 256 259 263 266
341 338 342 340 345 348 350 352 348 335 340 329 313 237 203 184 181 177 173 177 195 205 208 211 212 216 213 216 219 222 225 228 230 234 237 239 241 243 248 252 255 258 264 263 266
338 335 339 337 336 340 343 343 337 317 301 301 306 275 231 225 216 216 214 204 206 201 206 211 212 214 215 218 220 222 224 226 229 233 234 238 242 244 248 254 257 257 261 263 270